| time (UTC) | temp F | wind direction | speed MPH | gust MPH | rain 1hr in | rain 24hr in | rain mn in | humidity % | barometer mb |
| 20260503225316 | 61 | 80 | 4.0 | 6.0 | 0.00 | 0.00 | 0.00 | 37 | 1019.2 |
| 20260503224816 | 61 | 184 | 4.0 | 7.0 | 0.00 | 0.00 | 0.00 | 37 | 1019.1 |
| 20260503224316 | 61 | 161 | 4.0 | 7.0 | 0.00 | 0.00 | 0.00 | 37 | 1019.2 |
| 20260503223816 | 61 | 132 | 3.0 | 7.0 | 0.00 | 0.00 | 0.00 | 38 | 1019.2 |
| 20260503223316 | 61 | 148 | 3.0 | 6.0 | 0.00 | 0.00 | 0.00 | 36 | 1019.2 |
| 20260503222816 | 62 | 108 | 5.0 | 9.0 | 0.00 | 0.00 | 0.00 | 37 | 1019.3 |
| 20260503222316 | 62 | 123 | 7.0 | 9.0 | 0.00 | 0.00 | 0.00 | 36 | 1019.2 |
| 20260503221816 | 62 | 92 | 9.0 | 13.0 | 0.00 | 0.00 | 0.00 | 36 | 1019.1 |
| 20260503221316 | 62 | 94 | 10.0 | 14.0 | 0.00 | 0.00 | 0.00 | 36 | 1019.0 |
| 20260503220816 | 62 | 104 | 11.0 | 15.0 | 0.00 | 0.00 | 0.00 | 36 | 1019.1 |
| 20260503220316 | 62 | 55 | 10.0 | 16.0 | 0.00 | 0.00 | 0.00 | 36 | 1019.0 |
| 20260503215816 | 62 | 96 | 10.0 | 13.0 | 0.00 | 0.00 | 0.00 | 37 | 1018.9 |
| 20260503215316 | 62 | 90 | 11.0 | 16.0 | 0.00 | 0.00 | 0.00 | 36 | 1018.8 |
| 20260503214816 | 62 | 115 | 11.0 | 14.0 | 0.00 | 0.00 | 0.00 | 37 | 1018.8 |
| 20260503214316 | 62 | 96 | 10.0 | 15.0 | 0.00 | 0.00 | 0.00 | 36 | 1018.8 |
| 20260503213816 | 62 | 95 | 9.0 | 12.0 | 0.00 | 0.00 | 0.00 | 37 | 1018.9 |
| 20260503213316 | 62 | 100 | 7.0 | 9.0 | 0.00 | 0.00 | 0.00 | 39 | 1018.8 |
| 20260503212816 | 61 | 92 | 7.0 | 9.0 | 0.00 | 0.00 | 0.00 | 40 | 1018.8 |
| 20260503212316 | 60 | 93 | 6.0 | 9.0 | 0.00 | 0.00 | 0.00 | 43 | 1018.8 |
| 20260503211816 | 58 | 90 | 6.0 | 10.0 | 0.00 | 0.00 | 0.00 | 47 | 1018.8 |
| 20260503211316 | 57 | 107 | 5.0 | 12.0 | 0.00 | 0.00 | 0.00 | 52 | 1018.8 |
| 20260503210816 | 56 | 81 | 4.0 | 7.0 | 0.00 | 0.00 | 0.00 | 61 | 1018.6 |
| 20260503210316 | 56 | 74 | 3.0 | 5.0 | 0.00 | 0.00 | 0.00 | 66 | 1018.6 |
| 20260503205816 | 56 | 34 | 2.0 | 4.0 | 0.00 | 0.00 | 0.00 | 67 | 1018.6 |
| 20260503205316 | 56 | 104 | 2.0 | 4.0 | 0.00 | 0.00 | 0.00 | 67 | 1018.5 |
| 20260503204816 | 56 | 107 | 2.0 | 3.0 | 0.00 | 0.00 | 0.00 | 68 | 1018.6 |
| 20260503204316 | 56 | 107 | 2.0 | 3.0 | 0.00 | 0.00 | 0.00 | 68 | 1018.6 |
| 20260503203816 | 56 | 108 | 2.0 | 3.0 | 0.00 | 0.00 | 0.00 | 68 | 1018.6 |
| 20260503203316 | 56 | 107 | 1.0 | 3.0 | 0.00 | 0.00 | 0.00 | 68 | 1018.6 |
| 20260503202816 | 56 | 135 | 2.0 | 4.0 | 0.00 | 0.00 | 0.00 | 67 | 1018.5 |
| 20260503202316 | 56 | 115 | 3.0 | 3.0 | 0.00 | 0.00 | 0.00 | 67 | 1018.5 |
| 20260503201816 | 56 | 78 | 3.0 | 7.0 | 0.00 | 0.00 | 0.00 | 67 | 1018.5 |
| 20260503201316 | 57 | 113 | 4.0 | 6.0 | 0.00 | 0.00 | 0.00 | 66 | 1018.4 |
| 20260503200816 | 57 | 112 | 4.0 | 7.0 | 0.00 | 0.00 | 0.00 | 66 | 1018.4 |
| 20260503200316 | 57 | 117 | 3.0 | 7.0 | 0.00 | 0.00 | 0.00 | 66 | 1018.4 |
| 20260503195816 | 57 | 135 | 3.0 | 4.0 | 0.00 | 0.00 | 0.00 | 65 | 1018.5 |
| 20260503195316 | 58 | 148 | 4.0 | 5.0 | 0.00 | 0.00 | 0.00 | 65 | 1018.4 |
| 20260503194816 | 57 | 136 | 3.0 | 5.0 | 0.00 | 0.00 | 0.00 | 65 | 1018.3 |
| 20260503194316 | 57 | 130 | 2.0 | 4.0 | 0.00 | 0.00 | 0.00 | 65 | 1018.2 |
| 20260503193816 | 58 | 112 | 3.0 | 3.0 | 0.00 | 0.00 | 0.00 | 65 | 1018.2 |
| 20260503193316 | 58 | 112 | 3.0 | 4.0 | 0.00 | 0.00 | 0.00 | 64 | 1018.1 |
| 20260503192816 | 58 | 115 | 4.0 | 5.0 | 0.00 | 0.00 | 0.00 | 63 | 1018.1 |
| 20260503192316 | 59 | 123 | 3.0 | 4.0 | 0.00 | 0.00 | 0.00 | 62 | 1018.1 |
| 20260503191816 | 60 | 126 | 3.0 | 4.0 | 0.00 | 0.00 | 0.00 | 60 | 1018.0 |
| 20260503191316 | 60 | 142 | 3.0 | 5.0 | 0.00 | 0.00 | 0.00 | 59 | 1018.0 |
| 20260503190816 | 60 | 172 | 3.0 | 4.0 | 0.00 | 0.00 | 0.00 | 59 | 1018.0 |
| 20260503190316 | 60 | 163 | 4.0 | 5.0 | 0.00 | 0.00 | 0.00 | 59 | 1017.8 |
| 20260503185816 | 60 | 165 | 4.0 | 5.0 | 0.00 | 0.00 | 0.00 | 59 | 1017.9 |
| 20260503185316 | 60 | 167 | 3.0 | 4.0 | 0.00 | 0.00 | 0.00 | 59 | 1017.9 |
| 20260503184816 | 60 | 177 | 3.0 | 4.0 | 0.00 | 0.00 | 0.00 | 58 | 1017.8 |
| 20260503184316 | 60 | 175 | 3.0 | 4.0 | 0.00 | 0.00 | 0.00 | 59 | 1017.8 |
| 20260503183816 | 61 | 136 | 3.0 | 4.0 | 0.00 | 0.00 | 0.00 | 60 | 1017.7 |
| 20260503183316 | 61 | 135 | 3.0 | 4.0 | 0.00 | 0.00 | 0.00 | 59 | 1017.7 |
| 20260503182816 | 61 | 171 | 3.0 | 5.0 | 0.00 | 0.00 | 0.00 | 58 | 1017.6 |
| 20260503182316 | 61 | 260 | 3.0 | 4.0 | 0.00 | 0.00 | 0.00 | 58 | 1017.5 |
| 20260503181816 | 61 | 260 | 3.0 | 4.0 | 0.00 | 0.00 | 0.00 | 57 | 1017.5 |
| 20260503181316 | 61 | 284 | 2.0 | 4.0 | 0.00 | 0.00 | 0.00 | 57 | 1017.4 |
| 20260503180816 | 61 | 252 | 2.0 | 3.0 | 0.00 | 0.00 | 0.00 | 58 | 1017.4 |
| 20260503180316 | 62 | 301 | 2.0 | 4.0 | 0.00 | 0.00 | 0.00 | 57 | 1017.4 |
| 20260503175816 | 62 | 274 | 3.0 | 6.0 | 0.00 | 0.00 | 0.00 | 57 | 1017.4 |
| 20260503175316 | 62 | 257 | 5.0 | 7.0 | 0.00 | 0.00 | 0.00 | 57 | 1017.3 |
| 20260503174817 | 62 | 261 | 6.0 | 9.0 | 0.00 | 0.00 | 0.00 | 57 | 1017.2 |
| 20260503174316 | 62 | 294 | 7.0 | 9.0 | 0.00 | 0.00 | 0.00 | 56 | 1017.1 |
| 20260503173816 | 62 | 287 | 7.0 | 10.0 | 0.00 | 0.00 | 0.00 | 56 | 1017.0 |
| 20260503173316 | 63 | 286 | 7.0 | 10.0 | 0.00 | 0.00 | 0.00 | 55 | 1017.0 |
| 20260503172816 | 63 | 288 | 7.0 | 11.0 | 0.00 | 0.00 | 0.00 | 55 | 1017.0 |
| 20260503172316 | 63 | 276 | 8.0 | 14.0 | 0.00 | 0.00 | 0.00 | 54 | 1016.8 |
| 20260503171816 | 63 | 285 | 8.0 | 11.0 | 0.00 | 0.00 | 0.00 | 54 | 1016.9 |
| 20260503171316 | 64 | 304 | 9.0 | 12.0 | 0.00 | 0.00 | 0.00 | 53 | 1016.9 |
| 20260503170816 | 64 | 296 | 9.0 | 15.0 | 0.00 | 0.00 | 0.00 | 52 | 1016.8 |
| 20260503170316 | 64 | 266 | 10.0 | 13.0 | 0.00 | 0.00 | 0.00 | 51 | 1016.7 |
| 20260503150816 | 68 | 297 | 11.0 | 18.0 | 0.00 | 0.00 | 0.00 | 44 | 1016.2 |
| 20260503150316 | 69 | 267 | 10.0 | 14.0 | 0.00 | 0.00 | 0.00 | 43 | 1016.2 |
| 20260503131317 | 69 | 107 | 4.0 | 10.0 | 0.00 | 0.00 | 0.00 | 36 | 1016.6 |
| 20260503130817 | 69 | 114 | 5.0 | 7.0 | 0.00 | 0.00 | 0.00 | 36 | 1016.6 |
| 20260503130317 | 69 | 101 | 8.0 | 13.0 | 0.00 | 0.00 | 0.00 | 36 | 1016.6 |
| 20260503110817 | 67 | 39 | 9.0 | 14.0 | 0.00 | 0.00 | 0.00 | 40 | 1017.6 |
| 20260503110317 | 67 | 73 | 8.0 | 13.0 | 0.00 | 0.00 | 0.00 | 41 | 1017.8 |
| 20260503090317 | 63 | 81 | 16.0 | 27.0 | 0.00 | 0.00 | 0.00 | 41 | 1018.6 |
| 20260503081317 | 62 | 84 | 16.0 | 26.0 | 0.00 | 0.00 | 0.00 | 47 | 1018.3 |
| 20260503080817 | 62 | 82 | 14.0 | 27.0 | 0.00 | 0.00 | 0.00 | 46 | 1018.3 |
| 20260503080317 | 62 | 80 | 13.0 | 19.0 | 0.00 | 0.00 | 0.00 | 47 | 1018.3 |
| 20260503072817 | 62 | 59 | 11.0 | 20.0 | 0.00 | 0.00 | 0.00 | 49 | 1018.2 |
| 20260503072317 | 62 | 82 | 12.0 | 18.0 | 0.00 | 0.00 | 0.00 | 50 | 1018.4 |
| 20260503071817 | 62 | 58 | 11.0 | 16.0 | 0.00 | 0.00 | 0.00 | 52 | 1018.3 |
| 20260503071317 | 61 | 61 | 10.0 | 17.0 | 0.00 | 0.00 | 0.00 | 53 | 1018.3 |
| 20260503070817 | 61 | 81 | 7.0 | 16.0 | 0.00 | 0.00 | 0.00 | 53 | 1018.3 |
| 20260503070317 | 61 | 41 | 6.0 | 13.0 | 0.00 | 0.00 | 0.00 | 53 | 1018.3 |
| 20260503060317 | 57 | 153 | 4.0 | 8.0 | 0.00 | 0.00 | 0.00 | 66 | 1018.1 |
| 20260503054817 | 54 | 150 | 3.0 | 6.0 | 0.00 | 0.00 | 0.00 | 72 | 1018.0 |
| 20260503054317 | 53 | 295 | 1.0 | 3.0 | 0.00 | 0.00 | 0.00 | 74 | 1018.0 |
| 20260503053817 | 52 | 346 | 0.0 | 3.0 | 0.00 | 0.00 | 0.00 | 75 | 1017.9 |
| 20260503053317 | 52 | 347 | 1.0 | 2.0 | 0.00 | 0.00 | 0.00 | 75 | 1017.9 |
| 20260503052818 | 51 | 322 | 1.0 | 3.0 | 0.00 | 0.00 | 0.00 | 76 | 1017.8 |
| 20260503052318 | 51 | 322 | 1.0 | 2.0 | 0.00 | 0.00 | 0.00 | 76 | 1017.8 |
| 20260503051818 | 51 | 322 | 2.0 | 3.0 | 0.00 | 0.00 | 0.00 | 76 | 1017.9 |
| 20260503051318 | 51 | 322 | 2.0 | 4.0 | 0.00 | 0.00 | 0.00 | 75 | 1017.8 |
| 20260503050818 | 51 | 321 | 1.0 | 4.0 | 0.00 | 0.00 | 0.00 | 75 | 1017.7 |
| 20260503050318 | 51 | 311 | 1.0 | 2.0 | 0.00 | 0.00 | 0.00 | 75 | 1017.7 |
| 20260503045818 | 51 | 311 | 2.0 | 3.0 | 0.00 | 0.00 | 0.00 | 74 | 1017.7 |
| 20260503045318 | 51 | 311 | 1.0 | 3.0 | 0.00 | 0.00 | 0.00 | 74 | 1017.6 |
| 20260503044818 | 51 | 310 | 0.0 | 2.0 | 0.00 | 0.00 | 0.00 | 74 | 1017.7 |
| 20260503044318 | 51 | 310 | 1.0 | 0.0 | 0.00 | 0.00 | 0.00 | 74 | 1017.6 |
| 20260503043818 | 51 | 310 | 2.0 | 2.0 | 0.00 | 0.00 | 0.00 | 73 | 1017.5 |
| 20260503043318 | 51 | 310 | 2.0 | 3.0 | 0.00 | 0.00 | 0.00 | 73 | 1017.5 |
| 20260503042818 | 52 | 310 | 2.0 | 4.0 | 0.00 | 0.00 | 0.00 | 73 | 1017.6 |
| 20260503042318 | 52 | 306 | 2.0 | 3.0 | 0.00 | 0.00 | 0.00 | 73 | 1017.6 |
| 20260503041818 | 51 | 306 | 3.0 | 4.0 | 0.00 | 0.00 | 0.00 | 75 | 1017.5 |
| 20260503041318 | 51 | 297 | 3.0 | 4.0 | 0.00 | 0.00 | 0.00 | 76 | 1017.5 |
| 20260503040818 | 50 | 275 | 3.0 | 4.0 | 0.00 | 0.00 | 0.00 | 77 | 1017.4 |
| 20260503040318 | 50 | 275 | 3.0 | 4.0 | 0.00 | 0.00 | 0.00 | 77 | 1017.3 |
| 20260503035818 | 51 | 281 | 3.0 | 4.0 | 0.00 | 0.00 | 0.00 | 76 | 1017.3 |
| 20260503035318 | 51 | 311 | 3.0 | 4.0 | 0.00 | 0.00 | 0.00 | 75 | 1017.3 |
| 20260503034818 | 51 | 312 | 3.0 | 4.0 | 0.00 | 0.00 | 0.00 | 75 | 1017.4 |
| 20260503034318 | 51 | 308 | 3.0 | 4.0 | 0.00 | 0.00 | 0.00 | 76 | 1017.3 |
| 20260503033818 | 50 | 292 | 3.0 | 4.0 | 0.00 | 0.00 | 0.00 | 77 | 1017.2 |
| 20260503033318 | 51 | 292 | 3.0 | 4.0 | 0.00 | 0.00 | 0.00 | 76 | 1017.3 |
| 20260503032818 | 51 | 297 | 4.0 | 3.0 | 0.00 | 0.00 | 0.00 | 76 | 1017.2 |
| 20260503032318 | 51 | 294 | 4.0 | 5.0 | 0.00 | 0.00 | 0.00 | 76 | 1017.2 |
| 20260503031818 | 50 | 293 | 3.0 | 6.0 | 0.00 | 0.00 | 0.00 | 78 | 1017.1 |
| 20260503031318 | 50 | 298 | 2.0 | 4.0 | 0.00 | 0.00 | 0.00 | 78 | 1017.2 |
| 20260503030818 | 50 | 306 | 2.0 | 4.0 | 0.00 | 0.00 | 0.00 | 78 | 1017.2 |
| 20260503030318 | 50 | 308 | 2.0 | 2.0 | 0.00 | 0.00 | 0.00 | 78 | 1017.3 |
| 20260503025818 | 50 | 308 | 2.0 | 3.0 | 0.00 | 0.00 | 0.00 | 78 | 1017.3 |
| 20260503025318 | 51 | 328 | 2.0 | 3.0 | 0.00 | 0.00 | 0.00 | 77 | 1017.3 |
| 20260503024818 | 51 | 328 | 2.0 | 3.0 | 0.00 | 0.00 | 0.00 | 76 | 1017.3 |
| 20260503024318 | 51 | 302 | 2.0 | 3.0 | 0.00 | 0.00 | 0.00 | 76 | 1017.3 |
| 20260503023818 | 51 | 293 | 2.0 | 3.0 | 0.00 | 0.00 | 0.00 | 76 | 1017.4 |
| 20260503023318 | 52 | 221 | 0.0 | 2.0 | 0.00 | 0.00 | 0.00 | 76 | 1017.3 |
| 20260503022818 | 52 | 221 | 0.0 | 2.0 | 0.00 | 0.00 | 0.00 | 77 | 1017.3 |
| 20260503022318 | 52 | 221 | 0.0 | 0.0 | 0.00 | 0.00 | 0.00 | 76 | 1017.3 |
| 20260503021818 | 53 | 220 | 0.0 | 0.0 | 0.00 | 0.00 | 0.00 | 75 | 1017.3 |
| 20260503021318 | 53 | 220 | 1.0 | 1.0 | 0.00 | 0.00 | 0.00 | 74 | 1017.3 |
| 20260503020818 | 53 | 220 | 2.0 | 3.0 | 0.00 | 0.00 | 0.00 | 73 | 1017.4 |
| 20260503020318 | 53 | 286 | 3.0 | 3.0 | 0.00 | 0.00 | 0.00 | 73 | 1017.4 |
| 20260503015818 | 52 | 286 | 3.0 | 4.0 | 0.00 | 0.00 | 0.00 | 75 | 1017.4 |
| 20260503015318 | 52 | 275 | 3.0 | 4.0 | 0.00 | 0.00 | 0.00 | 78 | 1017.5 |
| 20260503014818 | 51 | 281 | 3.0 | 4.0 | 0.00 | 0.00 | 0.00 | 80 | 1017.5 |
| 20260503014318 | 51 | 274 | 4.0 | 4.0 | 0.00 | 0.00 | 0.00 | 80 | 1017.4 |
| 20260503013818 | 51 | 266 | 5.0 | 7.0 | 0.00 | 0.00 | 0.00 | 79 | 1017.5 |
| 20260503013318 | 52 | 268 | 5.0 | 8.0 | 0.00 | 0.00 | 0.00 | 78 | 1017.5 |
| 20260503012818 | 52 | 276 | 4.0 | 7.0 | 0.00 | 0.00 | 0.00 | 76 | 1017.5 |
| 20260503012318 | 51 | 292 | 3.0 | 4.0 | 0.00 | 0.00 | 0.00 | 77 | 1017.6 |
| 20260503011818 | 51 | 308 | 3.0 | 4.0 | 0.00 | 0.00 | 0.00 | 78 | 1017.6 |
| 20260503011318 | 51 | 297 | 3.0 | 4.0 | 0.00 | 0.00 | 0.00 | 78 | 1017.6 |
| 20260503010818 | 51 | 286 | 3.0 | 6.0 | 0.00 | 0.00 | 0.00 | 78 | 1017.6 |
| 20260503010318 | 51 | 290 | 3.0 | 5.0 | 0.00 | 0.00 | 0.00 | 78 | 1017.7 |
| 20260503005818 | 51 | 297 | 3.0 | 3.0 | 0.00 | 0.00 | 0.00 | 79 | 1017.7 |
| 20260503005318 | 51 | 297 | 3.0 | 4.0 | 0.00 | 0.00 | 0.00 | 79 | 1017.7 |
| 20260503004818 | 51 | 288 | 1.0 | 4.0 | 0.00 | 0.00 | 0.00 | 79 | 1017.7 |
| 20260503004318 | 51 | 284 | 0.0 | 0.0 | 0.00 | 0.00 | 0.00 | 79 | 1017.8 |
| 20260503003818 | 52 | 284 | 0.0 | 0.0 | 0.00 | 0.00 | 0.00 | 78 | 1017.7 |
| 20260503003318 | 52 | 323 | 1.0 | 1.0 | 0.00 | 0.00 | 0.00 | 77 | 1017.8 |
| 20260503002818 | 52 | 323 | 2.0 | 2.0 | 0.00 | 0.00 | 0.00 | 77 | 1017.8 |
| 20260503002318 | 52 | 323 | 2.0 | 4.0 | 0.00 | 0.00 | 0.00 | 78 | 1017.8 |
| 20260503001818 | 52 | 319 | 3.0 | 4.0 | 0.00 | 0.00 | 0.00 | 79 | 1017.7 |
| 20260503001318 | 52 | 319 | 3.0 | 5.0 | 0.00 | 0.00 | 0.00 | 79 | 1017.9 |
| 20260503000818 | 52 | 301 | 3.0 | 5.0 | 0.00 | 0.00 | 0.00 | 79 | 1017.9 |
| 20260503000319 | 52 | 307 | 2.0 | 4.0 | 0.00 | 0.00 | 0.00 | 78 | 1018.0 |
| 20260502235818 | 52 | 29 | 2.0 | 2.0 | 0.00 | 0.00 | 0.00 | 78 | 1018.1 |
| 20260502235318 | 53 | 29 | 2.0 | 2.0 | 0.00 | 0.00 | 0.00 | 77 | 1018.2 |
| 20260502234818 | 53 | 29 | 1.0 | 3.0 | 0.00 | 0.00 | 0.00 | 77 | 1018.2 |
| 20260502234318 | 53 | 63 | 1.0 | 3.0 | 0.00 | 0.00 | 0.00 | 77 | 1018.3 |
| 20260502233818 | 53 | 65 | 2.0 | 3.0 | 0.00 | 0.00 | 0.00 | 77 | 1018.3 |
| 20260502233318 | 53 | 96 | 1.0 | 2.0 | 0.00 | 0.00 | 0.00 | 78 | 1018.4 |
| 20260502232818 | 53 | 96 | 2.0 | 4.0 | 0.00 | 0.00 | 0.00 | 78 | 1018.4 |
| 20260502232318 | 53 | 165 | 1.0 | 4.0 | 0.00 | 0.00 | 0.00 | 78 | 1018.4 |
| 20260502231818 | 53 | 172 | 1.0 | 3.0 | 0.00 | 0.00 | 0.00 | 77 | 1018.4 |
| 20260502231318 | 53 | 175 | 1.0 | 2.0 | 0.00 | 0.00 | 0.00 | 77 | 1018.5 |
| 20260502230818 | 53 | 175 | 1.0 | 3.0 | 0.00 | 0.00 | 0.00 | 76 | 1018.6 |
| 20260502230318 | 54 | 175 | 0.0 | 3.0 | 0.00 | 0.00 | 0.00 | 76 | 1018.6 |
| 20260502225818 | 54 | 175 | 0.0 | 0.0 | 0.00 | 0.00 | 0.00 | 75 | 1018.5 |